Regional Weather Roundup
Issued by NWS

Home | Current Version | Previous Version | Graphics & Text | Print | Product List | Glossary Off
Versions: 1 2 3 4 5 6 7 8 9 10 11 12 13 14 15 16 17 18 19 20 21 22 23 24 25 26 27 28 29 30 31 32 33 34 35 36 37 38 39 40 41 42 43 44 45 46 47 48 49 50

000
ASUS43 KTOP 292108
RWRKS

WEATHER ROUNDUP FOR KANSAS
NATIONAL WEATHER SERVICE GOODLAND KS
300 PM CST THU JAN 29 2015

NOTE:  "FAIR" INDICATES FEW OR NO CLOUDS BELOW 12,000 FEET WITH NO
SIGNIFICANT WEATHER AND/OR OBSTRUCTIONS TO VISIBILITY.

KSZ001>006-013>018-027>032-041>047-292200-
NORTHWEST KANSAS

CITY           SKY/WX    TMP DP  RH WIND       PRES   REMARKS
GOODLAND       SUNNY     47  20  34 N13       30.46F
HAYS           SUNNY     46  21  36 NW13      30.47S
HILL CITY      SUNNY     47  23  38 N14       30.47F
RUSSELL          N/A     49  24  37 N18       30.45S
$$

KSZ061>065-074>080-084>089-292200-
SOUTHWEST KANSAS

CITY           SKY/WX    TMP DP  RH WIND       PRES   REMARKS
DODGE CITY     SUNNY     48  21  34 N17G24    30.47R
ELKHART          N/A     48  27  44 N7          N/A
GARDEN CITY    SUNNY     48  22  35 N16G25    30.46F
LIBERAL        SUNNY     50  27  40 N16       30.48F
PRATT          SUNNY     48  25  40 N18       30.46S
$$

KSZ066>073-081>083-090>101-292200-
SOUTHEAST KANSAS

CITY           SKY/WX    TMP DP  RH WIND       PRES   REMARKS
CHANUTE        CLOUDY    47  29  49 N15G24    30.40R
COFFEYVILLE    MOSUNNY   50  28  42 NW22G31   30.40S
HUTCHINSON     SUNNY     50  25  37 N13G25    30.45S
MEDICINE LODGE   N/A     51  25  36 N13G25    30.45R
NEWTON         SUNNY     48  25  40 N18G26    30.45R
PARSONS        MOSUNNY   50  29  44 N18G25    30.41R
WICHITA INTL   MOSUNNY   51  25  36 N21G26    30.44R
WICHITA JABRA  SUNNY     49  26  41 N21G28    30.43S
WICHITA MCCONL SUNNY     49  27  41 N14G25    30.44R
WINFIELD       SUNNY     50  27  40 N13G26    30.44S
$$

KSZ007>012-019>026-033>040-048>060-102>105-292200-
NORTHEAST KANSAS

CITY           SKY/WX    TMP DP  RH WIND       PRES   REMARKS
CONCORDIA      SUNNY     47  26  44 N13       30.45S
EMPORIA        PTSUNNY   45  27  49 N20G29    30.41R
LAWRENCE       MOSUNNY   46  26  45 N25       30.40R
MANHATTAN      PTSUNNY   44  27  51 N14G23    30.45R
MARYSVILLE     CLOUDY    43  28  56 N15G25    30.44R
OLATHE IND     PTSUNNY   44  27  51 NW22G30   30.38S
OLATHE EXE     PTSUNNY   43  27  53 N15G25    30.37R
SALINA         SUNNY     50  25  37 N20G29    30.45S
TOPEKA BILLARD CLOUDY    43  27  53 N20G28    30.43R
TOPEKA FORBES  PTSUNNY   45  26  47 N18G26    30.41R
$$


USA.gov is the U.S. government's official web portal to all federal, state and local government web resources and services.